OBJECT AD, 59125

Orbit data source: Space-Track

You're viewing an Uncataloged Satellite

Recently launched and/or uncataloged satellites may have evolving metadata. Metadata may include but not limited to: Owner, Maufacturer, Bus, Motor, and Mission.

OBJECT AD, 59125 is a satellite in SSO that was launched on Mon, 04 Mar 2024 UTC via an FALCON 9 launch vehicle from the Air Force Western Test Range (AFWTR). Unknown objects in Earth's orbit typically refer to objects detected orbiting the Earth but have not yet been identified or cataloged. These objects could be anything from previously untracked satellites, spent rocket stages, debris from satellite collisions, or even natural meteoroids temporarily captured by Earth's gravity.

Loading next visibility...
Identifier
59125, 2024-043AD
Orbit
SSO
Last TLE update
21 hours ago
Origin
Flag of TBDSPMACH (TBD)
Manufacturer
Space Machines
Mission
Operational Commercial Technology
Bus & Motor
OPTIMUS, Unknown motor
Mass
270 kg wet, 270 kg dry
Launch date (UTC)
2024-03-04 (1 year ago)
Launch vehicle
FALCON 9
Launch site
Air Force Western Test Range (AFWTR)
Object type
Unknown
Shape & HBR
Cyl + 1 Pan, 1.5 m
Radar Cross Section
2.062 m², Medium (>0.1 m² and < 1m²)

Expand to show TLE details & history

TLE from 21 hours ago
0 OBJECT AD
1 59125U 24043AD  25181.87991686  .00004727  00000-0  17499-3 0  9999
2 59125  97.5200 311.5403 0011845  46.1353 314.0863 15.28109722 73478
Epoch: 2025-06-30T21:07Z
TLE epoch observation values (Epoch: 2025-06-30T21:07:04.816Z)
Latitude
-0.00001°
Longitude
75.58685°
Altitude
478.912 km
Speed
7.629 km/s
True Right ascension
20h 46m 09s
True Declination
0° 00' 00"
Sunlit
Object was in full shadow at epoch
Visualization orbit readout
Latitude
60.14773°
Longitude
-90.30935°
Altitude
489.737 km
Speed
7.627 km/s
Apparent Right ascension
14h 51m 37s
Apparent Declination
23° 14' 30"
Sunlit
Object is in daylight
Visualization observer readout
Local Sidereal Time
05:43:42
Azimuth
40.512° NE
Elevation
-15.19°
Doppler factor
1
Orbital elements
Apogee altitude
486.545 km
Perigee altitude
470.302 km
Semi-major axis
6,856.56 km
Eccentricity
0.00118
Inclination
97.52°
RAAN
311.5403°
Arg. of periapsis
46.1353°
True anomaly
Unknown
Mean anomaly
314.0863°
Eccentric anomaly
Unknown
Mean motion
3.82282 °/min
Orbital period
94.17 mins
BSTAR
0.00017499
Loading maneuver chart data...
Loading SW <> Apogee altitude chart data...
Loading historical data...
Loading historical data...
Loading historical data...
Loading historical data...
Loading historical data...
Loading historical data...
Loading historical data...

OBJECT AD Visibility forecast

Observer location: undefined°, undefined°

Span
Click to sort rows by Start time (UTC) header in descending order
Start Az.
Max El. time (UTC)
Max El. Az.
Max El.
End time (UTC)
End Az.
6 mins2025-07-01 21:15:00.239Z24.208° NE2025-07-01 21:18:00.239Z89.921° E37.469°2025-07-01 21:21:00.239Z174.008° S
|